Regional Weather Roundup
Issued by NWS

Home | Current Version | Previous Version | Graphics & Text | Print | Product List | Glossary On
Versions: 1 2 3 4 5 6 7 8 9 10 11 12 13 14 15 16 17 18 19 20 21 22 23 24 25 26 27 28 29 30 31 32 33 34 35 36 37 38 39 40 41 42 43 44 45 46 47 48 49 50
000
ASUS43 KIND 260900
RWRIN

WEATHER ROUNDUP FOR INDIANA
NATIONAL WEATHER SERVICE INDIANAPOLIS IN
500 AM EDT WED JUL 26 2017

NOTE: "FAIR" INDICATES FEW OR NO CLOUDS BELOW 12,000 FEET WITH NO
SIGNIFICANT WEATHER AND/OR OBSTRUCTIONS TO VISIBILITY.

* - STATION DOES NOT REPORT WEATHER SUCH AS PRECIPITATION OR FOG.

+ - STATION NOT QUALITY CONTROLLED BY THE NATIONAL WEATHER SERVICE.
    USE DATA WITH CAUTION...ESPECIALLY DEWPOINT AND RELATIVE
    HUMIDITY OBSERVATIONS.

INZ001>003-010>013-019-020-261000-
NORTHWEST INDIANA

CITY           SKY/WX    TMP DP  RH WIND       PRES   REMARKS
MICHIGAN CITY+ CLOUDY    66  59  77 S7        30.14S
MONTICELLO +   CLEAR     63  60  91 CALM      30.14S
RENSSELAER +   CLEAR     61  57  88 E3        30.14S

$$

LMZ046-743>745-261000-
SOUTHERN LAKE MICHIGAN

STATION/POSITION TIME  TEMP    WIND        PRES    WAVE
                       AIR SEA DIR/SP/G            HT
                 (UTC) (F)     (DEG/KT/KT) (MB)    (FT)
BURNS HARBOR     0840   70     180/  9/ 13 1020.3F
MICHIGAN CITY    0830   69     160/  9/ 12   N/A
5NW MICH CITY    0850   70 74  180/ 12/ 16   N/A     1

$$

INZ004-005-014>016-021>024-261000-
NORTH CENTRAL INDIANA

CITY           SKY/WX    TMP DP  RH WIND       PRES   REMARKS
GOSHEN         PTCLDY    62  57  83 SE7       30.15F
SOUTH BEND     PTCLDY    66  59  78 S8        30.14F

$$

INZ006>009-017-018-025>027-261000-
NORTHEAST INDIANA

CITY           SKY/WX    TMP DP  RH WIND       PRES   REMARKS
FORT WAYNE     CLOUDY    60  58  92 CALM      30.16F
KENDALLVILLE + PTCLDY    59  59  99 CALM      30.18F

$$

INZ028-029-035-036-043>045-051>053-261000-
WEST CENTRAL INDIANA

CITY           SKY/WX    TMP DP  RH WIND       PRES   REMARKS
LAFAYETTE      CLEAR     62  60  93 E5        30.12F
TERRE HAUTE    CLEAR     64  60  87 E3        30.12F

$$

INZ030>032-037>040-046>048-054>057-064-065-261000-
CENTRAL INDIANA

CITY           SKY/WX    TMP DP  RH WIND       PRES   REMARKS
GREENWOOD *+   CLEAR    N/A N/A N/A E5        30.16S
INDIANAPOLIS   PTCLDY    65  61  87 E6        30.15S
-EAGLE CREEK   CLEAR     65  59  81 SE5       30.15S
KOKOMO +       CLEAR     60  58  92 SE5       30.16F
MT COMFORT *+  CLEAR     61  59  94 SE3       30.18R
SHELBYVILLE    CLEAR     61  57  87 E5        30.15S

$$

INZ033-034-041-042-049-050-058-059-261000-
EAST CENTRAL INDIANA

CITY           SKY/WX    TMP DP  RH WIND       PRES   REMARKS
MUNCIE         CLEAR     62  58  86 SE5       30.16F
RICHMOND +     CLEAR     54  54 100 E3        30.20R FOG

$$

INZ060-061-067>069-081>083-085>088-261000-
SOUTHWEST INDIANA

CITY           SKY/WX    TMP DP  RH WIND       PRES   REMARKS
EVANSVILLE     CLEAR     71  67  87 NE3       30.11R
HUNTINGBURG *+ MOCLDY    71  65  81 E5        30.12S

$$

INZ062-063-066-070>080-084-089>092-261000-
SOUTH CENTRAL AND SOUTHEAST INDIANA

CITY           SKY/WX    TMP DP  RH WIND       PRES   REMARKS
BLOOMINGTON    CLEAR     65  60  84 SE5       30.14F
MADISON *+     CLEAR     64  61  88 E3        30.18R
SEYMOUR +      CLEAR     63  61  94 CALM      30.15R

$$





USA.gov is the U.S. government's official web portal to all federal, state and local government web resources and services.